User: anonymous   Login
Location: Unspecified
(0.0000°N, 0.0000°E)
Time: 01:49:44
(UTC+00:00)
Language:

ONEWEB-0047 - Orbit

View from above orbital plane
View from above orbital plane
View from above satellite
View from above satellite

Ground track
Ground track

The orbit is defined by the following mean orbital elements,

1 45152U          26145.24175683 +.00000000 +00000-0 +17327-2 0 00006
2 45152  87.8858  40.8327 0001886  75.6096 284.5240 13.10412402    06
Epoch (UTC): 25 May 2026 05:48:07
Eccentricity: 0.0001886
inclination: 87.8858°
perigee height: 1220 km
apogee height: 1223 km
right ascension of ascending node: 40.8327°
argument of perigee: 75.6096°
revolutions per day: 13.10412402
mean anomaly at epoch: 284.5240°

The dashed part of the orbit path shows where the satellite is in the earth's shadow,  

DLR